Find Starlink 32423

NORAD ID: 61218 Int'l Des: 2024-171 Owner: SPXS Country: US Constellation: starlink operational
LEOCIRCULAR

实时位置

正在加载3D地球...

关于 Starlink 32423

正在加载描述...

即将过境

Passes for default location (London). Set your location on the main map for personalized predictions.

高度历史

Loading altitude history...

两行轨道根数

1 61218U 24171U 26125.54800757 .00001573 00000-0 65236-4 0 9997
2 61218 53.1618 58.3491 0001314 93.4016 266.7135 15.30196798 91982
Epoch: May 5, 2026 • Age: 15 hours

当前状态

高度 488.5 km
速度 7.62 km/s
星下点 -38.38°S, 86.03°E
发射日期 Sep 20, 2024
运行时间 1.6 years
类型 internet

技术详情

分类 Payload
质量 730.00 kg
干质量 700.00 kg
总质量 730.00 kg
长度 0.30 m
直径 4.10 m
跨度 29.00 m
形状 Box + pan
制造商 SPXS
平台类型 Starlink V2M
阶段状态 In Orbit
所有者/国家 SPXS/US

Most Searched